TIME,DELAY(SENSOR),PRES,OXYGEN,RAWTEMP,T(OPTODE),TCPHASE,FLUOR,BETA(BETA700),BETA(BETA412),BETA(BETA440),CDOM,C(CSC),ED(ED412.40),ED(ED444.00),ED(ED489.70),ED(ED554.30),LU(LU411.80),LU(LU443.40),LU(LU489.60),LU(LU554.10),COMP,TILTX,TILTY,CHECK
1340335600,5807,898.1400146484375000,42.1652488708496100,659.9840698242188000,4.6284937858581540,54.6722297668457000,54,99,89,78,83,15386,2147758884,2147420352,2148004626,2147876251,2147639250,2147060397,2148258678,2147197787,1763,4,14,30213
1340339196,5807,969.7000122070312000,45.5305290222168000,667.9857177734375000,4.3647160530090330,54.2761611938476560,53,100,88,80,81,15385,2147759652,2147420562,2148006043,2147871954,2147641782,2147064832,2148261019,2147197851,189,4,14,29480
1340342796,5807,989.4500122070312000,46.5490303039550800,669.9904174804688000,4.2985148429870605,54.1521110534668000,53,97,87,78,82,15367,2147761618,2147421632,2148004644,2147873673,2147642761,2147065892,2148262281,2147194770,3473,4,14,52183
1340346396,5809,988.2600097656250000,46.7937316894531250,671.1892700195312000,4.2589039802551270,54.1335601806640600,52,101,87,78,82,15382,2147761526,2147419803,2148006345,2147874688,2147642816,2147062692,2148260050,2147201545,246,4,13,55749
1340349996,5812,987.7000122070312000,47.1139717102050800,672.6207885742188000,4.2115840911865230,54.1046905517578100,53,99,92,78,82,15384,2147760292,2147421083,2148008192,2147872000,2147643410,2147061110,2148258212,2147201252,3395,4,13,57778
1340353596,5811,977.3800048828125000,47.9130287170410160,675.3463134765625000,4.1214280128479000,54.0268402099609400,54,103,89,78,81,15384,2147758098,2147420544,2148005558,2147872768,2147640338,2147058916,2148259419,2147195766,2861,4,13,20486
1340357196,5810,986.6099853515625000,48.4805793762207000,676.2766113281250000,4.0906329154968260,53.9613418579101560,52,99,88,81,82,15383,2147759698,2147423817,2148007597,2147873755,2147642742,2147063661,2148262116,2147197796,449,4,13,16227
1340360796,5808,985.6699829101562000,48.2145690917968750,676.0590209960938000,4.0978369712829590,53.9952507019043000,53,100,89,80,84,15384,2147761481,2147423387,2148005750,2147874797,2147647204,2147061257,2148257280,2147197860,791,4,13,21058
1340364396,5807,991.1500244140625000,48.4599914550781250,676.3082275390625000,4.0895881652832030,53.9629402160644500,52,98,86,79,83,15383,2147760000,2147419693,2148004882,2147875392,2147641069,2147061403,2148262893,2147196937,192,4,13,17764
1340367996,5806,998.6799926757812000,47.7360496520996100,674.7210083007812000,4.1421179771423340,54.0456390380859400,53,99,87,81,82,15381,2147760448,2147419136,2148006729,2147874377,2147640868,2147060946,2148266742,2147199899,3465,4,13,27896
1340371596,5811,999.8200073242188000,47.2207603454589840,673.9414062500000000,4.1679100990295410,54.1064796447753900,53,98,90,79,83,15382,2147763419,2147419812,2148009654,2147875867,2147641252,2147059766,2148258212,2147194998,43,5,13,42575
1340375196,5809,1005.7600097656250000,47.2456283569335940,673.8012695312500000,4.1725440025329590,54.1027412414550800,52,100,90,78,82,15379,2147764544,2147418742,2148007990,2147874148,2147641536,2147068150,2148261933,2147201691,3396,4,13,32070
1340378796,5807,1012.0999755859375000,46.7096900939941400,672.4511718750000000,4.2171921730041500,54.1647300720214840,53,98,90,81,82,15378,2147757357,2147424786,2148004032,2147872457,2147641938,2147063168,2148264073,2147197705,3256,4,13,45179
1340382396,5806,1009.1400146484375000,45.6956481933593750,671.5886840820312000,4.2457008361816410,54.2982292175293000,52,98,89,80,83,15376,2147763008,2147421540,2148005238,2147875776,2147642130,2147062985,2148262180,2147199378,3589,4,14,13962
1340385996,5806,1007.1799926757812000,46.3099708557128900,672.3234252929688000,4.2214150428771970,54.2147483825683600,53,100,89,80,81,15371,2147759222,2147420333,2148007433,2147875574,2147642496,2147061467,2148259602,2147198125,229,4,13,17225
1340389596,5805,1000.0300292968750000,46.2062301635742200,672.5347290039062000,4.2144317626953125,54.2354011535644500,52,101,88,79,82,15375,2147759890,2147422537,2148007305,2147875190,2147638811,2147065956,2148260096,2147198445,146,4,13,6962
1340393196,5809,996.4500122070312000,46.9282493591308600,674.9038696289062000,4.1360650062561035,54.1613197326660160,53,99,88,83,82,15374,2147759369,2147420123,2148009078,2147873819,2147640978,2147057133,2148262317,2147198546,214,4,13,41662
1340396796,5811,991.4600219726562000,47.6078300476074200,675.6583251953125000,4.1111011505126950,54.0729103088378900,53,100,90,78,83,15376,2147758619,2147418642,2148005952,2147874368,2147640777,2147058660,2148264073,2147195894,366,4,13,7397
1340400396,5808,989.8099975585938000,47.9834098815918000,676.7971191406250000,4.0734000205993650,54.0364913940429700,52,98,92,78,82,15372,2147762614,2147421202,2148005796,2147874048,2147643547,2147059108,2148262171,2147198052,47,4,13,59098
1340403996,5810,990.2000122070312000,48.7799797058105500,677.6171875000000000,4.0462398529052730,53.9356307983398440,52,98,86,79,83,15375,2147758710,2147421147,2148008923,2147874194,2147639168,2147064073,2148259401,2147198253,3490,4,13,41767
1340407596,5811,1003.7700195312500000,48.1654815673828100,675.9686279296875000,4.1008300781250000,54.0030593872070300,52,101,86,78,81,15373,2147760740,2147421796,2148006729,2147873353,2147643190,2147058450,2148265883,2147198948,3297,4,13,43246
1340411196,5811,994.1400146484375000,47.8196411132812500,676.5363159179688000,4.0820350646972660,54.0566787719726560,52,97,87,80,81,15372,2147760667,2147422939,2148006912,2147872566,2147642020,2147062893,2148263734,2147197641,386,4,13,54258
1340414796,5807,1004.5900268554688000,48.0456809997558600,676.2169799804688000,4.0926070213317870,54.0221214294433600,52,98,90,78,82,15371,2147762477,2147417664,2148006235,2147872566,2147642770,2147063094,2148254866,2147198409,666,4,13,49775
1340418396,5809,1008.5100097656250000,46.9659500122070300,674.3499755859375000,4.1543941497802730,54.1505508422851560,53,98,87,80,83,15373,2147761088,2147419785,2148010102,2147869376,2147641901,2147062317,2148264201,2147195922,3471,4,13,14351
1340421996,5812,1020.2800292968750000,46.4397888183593750,672.3682250976562000,4.2199358940124510,54.1997108459472660,53,101,89,80,82,15371,2147762459,2147422528,2148010386,2147871168,2147642998,2147063323,2148260589,2147201444,6,4,13,32492
1340425596,5810,1017.6199951171875000,45.7590408325195300,671.3032226562500000,4.2551398277282715,54.2825393676757800,53,98,86,78,81,15367,2147762285,2147423286,2148007561,2147872996,2147638400,2147059913,2148259849,2147196736,270,4,13,9309
1340429196,5808,1019.2299804687500000,45.6254310607910160,671.5106811523438000,4.2482810020446780,54.3034400939941400,52,100,87,79,83,15365,2147758683,2147420809,2148008795,2147870884,2147640246,2147067218,2148261760,2147199579,2884,4,13,15227
1340432796,5810,1015.7399902343750000,45.9726181030273440,672.3768920898438000,4.2196478843688965,54.2669105529785160,53,99,91,78,82,15371,2147759771,2147424384,2148009280,2147875017,2147645714,2147057307,2148260333,2147198656,553,4,13,61988
1340436396,5809,1006.1599731445312000,46.0620002746582000,673.5880126953125000,4.1796021461486820,54.2678909301757800,53,98,87,80,82,15367,2147757257,2147419977,2148010166,2147873819,2147642843,2147064036,2148260800,2147196352,3531,4,14,44765
1340439996,5808,992.6400146484375000,47.1646385192871100,675.7167968750000000,4.1091651916503910,54.1368408203125000,53,100,92,79,83,15370,2147757467,2147422482,2148008740,2147873526,2147644507,2147064438,2148262738,2147198336,2386,4,13,14368
1340443596,5807,991.1500244140625000,47.9737091064453100,677.4312744140625000,4.0523991584777830,54.0408210754394500,53,102,84,78,83,15372,2147762112,2147422052,2148010386,2147872246,2147642486,2147058642,2148263616,2147200649,3343,4,13,27263
1340447196,5809,996.5800170898438000,47.9188003540039060,678.4719848632812000,4.0179271697998050,54.0618705749511700,53,100,91,79,83,15369,2147760018,2147419757,2148009216,2147872210,2147642678,2147058477,2148263314,2147202176,28,4,13,23180
1340450796,5807,996.7500000000000000,48.4091186523437500,678.2305297851562000,4.0259280204772950,53.9926185607910160,53,102,88,79,82,15369,2147761316,2147422665,2148006701,2147871021,2147643529,2147059894,2148258102,2147200841,373,4,13,471
1340454396,5809,1002.6300048828125000,48.2865905761718750,677.9818115234375000,4.0341639518737790,54.0082817077636700,52,98,93,81,82,15368,2147761280,2147423698,2148006857,2147873353,2147641645,2147058834,2148263094,2147202624,3344,4,13,53082
1340457996,5811,1006.2199707031250000,47.7077598571777340,676.1771240234375000,4.0939269065856930,54.0661087036132800,52,98,91,78,82,15368,2147760804,2147420672,2148008868,2147876150,2147640841,2147063158,2148263049,2147198884,377,4,13,14217
1340461596,5807,1007.5200195312500000,47.0486602783203100,675.8817749023438000,4.1037030220031740,54.1583900451660160,52,100,89,81,81,15368,2147762669,2147422034,2148008210,2147872777,2147642523,2147062116,2148256676,2147199689,327,4,13,50695
1340465196,5808,1016.3699951171875000,47.3165397644043000,674.4470214843750000,4.1511840820312500,54.0990486145019500,54,102,88,79,82,15362,2147760237,2147422701,2148010075,2147874633,2147641846,2147059254,2148260745,2147198427,3062,4,13,51585
1340468796,5805,1021.3300170898438000,46.6206893920898440,673.0053710937500000,4.1988658905029300,54.1822319030761700,53,100,93,80,82,15367,2147760182,2147423936,2148009773,2147872512,2147640850,2147061165,2148256786,2147197238,3386,4,13,45424
1340472396,5805,1016.6199951171875000,45.6310501098632800,672.9437866210938000,4.2009048461914060,54.3208694458007800,53,99,91,81,81,15364,2147761408,2147418038,2148007058,2147871222,2147644480,2147056576,2148261001,2147200237,232,4,13,8298
1340475996,5809,1011.5800170898438000,46.0802497863769500,673.3233032226562000,4.1883540153503420,54.2614898681640600,52,99,85,80,83,15363,2147760045,2147420818,2148008859,2147873563,2147644571,2147058880,2148252809,2147197906,3483,4,14,52611
1340479596,5807,1013.4500122070312000,46.2618103027343750,673.7006835937500000,4.1758728027343750,54.2406387329101560,53,101,87,80,82,15366,2147760676,2147419995,2148009179,2147871286,2147642221,2147063716,2148262162,2147195090,157,4,13,44913
1340481056,5810,1007.9899902343750000,46.6865386962890600,674.2841796875000000,4.1565699577331540,54.1881713867187500,53,101,88,78,82,15372,2147763062,2147421997,2148007862,2147874048,2147643382,2147062317,2148261403,2147200667,3310,4,14,63091
